Change the Weather History Date:

Thursday, December 29, 2011

  Actual Average (KGEV) Record (KGEV)
Temperature  
Mean Temperature 38 °F -  
Max Temperature 46 °F 46 °F 68 °F (1984)
Min Temperature 30 °F 23 °F 8 °F (1978)
Degree Days  
Heating Degree Days 27    
Moisture  
Dew Point 29 °F    
Average Humidity 77    
Maximum Humidity 93    
Minimum Humidity 53    
Precipitation  
Precipitation 0.00 in - - ()
Sea Level Pressure  
Sea Level Pressure 29.98 in    
Wind  
Wind Speed 8 mph (WSW)    
Max Wind Speed 14 mph    
Max Gust Speed 18 mph    
Visibility 10 miles    
Events      
Averages and records for this station are not official NWS values.
T = Trace of Precipitation, MM = Missing Value Source: NWS Daily Summary

Daily Weather History Graph

Daily Weather History Graph

Search for Another Location

Airport or City:

Trip Planner

Search our weather history database for the weather conditions in past years. The results will help you decide how hot, cold, wet, or windy it might be!

Date:

Astronomy

Dec. 29, 2011 Rise Set
Actual Time 7:37 AM EST 5:17 PM EST
Civil Twilight 7:08 AM EST 5:46 PM EST
Nautical Twilight 6:36 AM EST 6:18 PM EST
Astronomical Twilight 6:04 AM EST 6:50 PM EST
Moon 10:38 AM EST (12/29) 10:44 PM EST (12/29)
Length of Visible Light 10h 37m
Length of Day
9h 39m
Waxing Crescent, 26% of the Moon is Illuminated
Dec 29
Waxing Crescent
Jan 1
First Quarter
Jan 9
Full
Jan 16
Last Quarter
Jan 23
New

Hourly Weather History & Observations

Time (EST) Temp. Windchill Dew Point Humidity Pressure Visibility Wind Dir Wind Speed Gust Speed Precip Events Conditions
12:15 AM 32.0 °F 24.8 °F 28.4 °F 87% 30.02 in 10.0 mi WSW 8.1 mph - N/A   Clear
12:35 AM 32.0 °F 25.6 °F 28.4 °F 87% 30.02 in 10.0 mi WSW 6.9 mph - N/A   Clear
12:55 AM 32.0 °F 24.8 °F 28.4 °F 87% 30.02 in 10.0 mi WSW 8.1 mph - N/A   Clear
1:15 AM 32.0 °F 24.8 °F 28.4 °F 87% 30.02 in 10.0 mi WSW 8.1 mph - N/A   Clear
1:35 AM 32.0 °F 24.8 °F 28.4 °F 87% 30.01 in 10.0 mi WSW 8.1 mph - N/A   Clear
1:55 AM 32.0 °F 24.8 °F 28.4 °F 87% 30.01 in 10.0 mi West 8.1 mph - N/A   Clear
2:15 AM 30.2 °F 22.6 °F 28.4 °F 93% 30.01 in 10.0 mi West 8.1 mph - N/A   Clear
2:35 AM 30.2 °F 23.4 °F 28.4 °F 93% 30.02 in 10.0 mi West 6.9 mph - N/A   Clear
2:55 AM 30.2 °F 24.3 °F 28.4 °F 93% 30.02 in 10.0 mi West 5.8 mph - N/A   Clear
3:15 AM 30.2 °F 24.3 °F 28.4 °F 93% 30.02 in 10.0 mi WSW 5.8 mph - N/A   Clear
3:35 AM 30.2 °F 23.4 °F 28.4 °F 93% 30.01 in 10.0 mi West 6.9 mph - N/A   Clear
3:55 AM 30.2 °F 23.4 °F 28.4 °F 93% 30.02 in 10.0 mi West 6.9 mph - N/A   Clear
4:15 AM 30.2 °F 22.6 °F 28.4 °F 93% 30.02 in 10.0 mi West 8.1 mph - N/A   Clear
8:15 AM 32.0 °F 24.8 °F 28.4 °F 87% 30.03 in 10.0 mi WSW 8.1 mph - N/A   Clear
8:35 AM 32.0 °F 24.8 °F 28.4 °F 87% 30.03 in 10.0 mi West 8.1 mph - N/A   Clear
8:55 AM 32.0 °F 24.8 °F 28.4 °F 87% 30.02 in 10.0 mi West 8.1 mph - N/A   Clear
9:15 AM 32.0 °F 24.2 °F 30.2 °F 93% 30.03 in 10.0 mi West 9.2 mph - N/A   Clear
9:35 AM 33.8 °F 25.8 °F 30.2 °F 87% 30.04 in 10.0 mi WSW 10.4 mph - N/A   Clear
9:55 AM 33.8 °F 25.3 °F 30.2 °F 87% 30.05 in 10.0 mi WSW 11.5 mph - N/A   Clear
10:15 AM 33.8 °F 25.8 °F 30.2 °F 87% 30.04 in 10.0 mi WSW 10.4 mph - N/A   Scattered Clouds
10:55 AM 35.6 °F 27.1 °F 30.2 °F 81% 30.02 in 10.0 mi West 12.7 mph - N/A   Clear
11:15 AM 35.6 °F 27.5 °F 30.2 °F 81% 30.02 in 10.0 mi WSW 11.5 mph 18.4 mph N/A   Clear
11:35 AM 37.4 °F 28.9 °F 32.0 °F 81% 30.00 in 10.0 mi West 13.8 mph 17.3 mph N/A   Clear
12:15 PM 41.0 °F 33.9 °F 32.0 °F 70% 29.98 in 10.0 mi West 12.7 mph - N/A   Scattered Clouds
12:35 PM 41.0 °F 33.5 °F 30.2 °F 65% 29.97 in 10.0 mi West 13.8 mph - N/A   Clear
1:35 PM 42.8 °F 36.6 °F 30.2 °F 61% 29.94 in 10.0 mi WSW 11.5 mph 16.1 mph N/A   Scattered Clouds
1:55 PM 42.8 °F 36.2 °F 32.0 °F 66% 29.94 in 10.0 mi WSW 12.7 mph 16.1 mph N/A   Scattered Clouds
2:15 PM 42.8 °F 37.0 °F 32.0 °F 66% 29.93 in 10.0 mi WSW 10.4 mph 16.1 mph N/A   Mostly Cloudy
2:35 PM 42.8 °F 36.6 °F 32.0 °F 66% 29.93 in 10.0 mi WSW 11.5 mph - N/A   Overcast
2:55 PM 44.6 °F 39.7 °F 30.2 °F 57% 29.93 in 10.0 mi WSW 9.2 mph - N/A   Overcast
3:15 PM 44.6 °F 39.2 °F 32.0 °F 61% 29.92 in 10.0 mi WSW 10.4 mph - N/A   Mostly Cloudy
3:35 PM 46.4 °F 41.5 °F 30.2 °F 53% 29.93 in 10.0 mi WSW 10.4 mph - N/A   Overcast
4:15 PM 44.6 °F 40.2 °F 30.2 °F 57% 29.93 in 10.0 mi West 8.1 mph - N/A   Overcast
4:35 PM 44.6 °F 40.2 °F 30.2 °F 57% 29.93 in 10.0 mi West 8.1 mph - N/A   Scattered Clouds
4:55 PM 42.8 °F 37.5 °F 30.2 °F 61% 29.93 in 10.0 mi WSW 9.2 mph - N/A   Clear
5:15 PM 42.8 °F 38.6 °F 28.4 °F 57% 29.94 in 10.0 mi West 6.9 mph - N/A   Mostly Cloudy
5:55 PM 41.0 °F 37.1 °F 28.4 °F 61% 29.95 in 10.0 mi WSW 5.8 mph - N/A   Overcast
6:15 PM 41.0 °F 39.0 °F 28.4 °F 61% 29.95 in 10.0 mi West 3.5 mph - N/A   Overcast
6:35 PM 39.2 °F 37.0 °F 28.4 °F 65% 29.96 in 10.0 mi WSW 3.5 mph - N/A   Scattered Clouds
6:55 PM 37.4 °F 34.9 °F 28.4 °F 70% 29.96 in 10.0 mi WSW 3.5 mph - N/A   Clear
7:15 PM 37.4 °F 32.8 °F 30.2 °F 75% 29.96 in 10.0 mi WSW 5.8 mph - N/A   Clear
7:35 PM 35.6 °F 30.7 °F 30.2 °F 81% 29.96 in 10.0 mi WSW 5.8 mph - N/A   Clear
8:15 PM 35.6 °F 29.2 °F 30.2 °F 81% 29.96 in 10.0 mi WSW 8.1 mph - N/A   Clear
8:35 PM 35.6 °F 29.2 °F 28.4 °F 75% 29.96 in 10.0 mi WSW 8.1 mph - N/A   Clear
8:55 PM 35.6 °F 29.2 °F 28.4 °F 75% 29.97 in 10.0 mi WSW 8.1 mph - N/A   Clear
9:15 PM 35.6 °F 28.0 °F 28.4 °F 75% 29.97 in 10.0 mi WSW 10.4 mph - N/A   Clear
9:35 PM 35.6 °F 28.0 °F 28.4 °F 75% 29.97 in 10.0 mi WSW 10.4 mph - N/A   Clear
9:55 PM 35.6 °F 27.5 °F 28.4 °F 75% 29.97 in 10.0 mi West 11.5 mph - N/A   Clear
10:15 PM 35.6 °F 28.0 °F 28.4 °F 75% 29.97 in 10.0 mi WSW 10.4 mph - N/A   Clear
10:35 PM 35.6 °F 28.0 °F 28.4 °F 75% 29.98 in 10.0 mi WSW 10.4 mph - N/A   Clear
10:55 PM 35.6 °F 28.6 °F 28.4 °F 75% 29.98 in 10.0 mi WSW 9.2 mph - N/A   Clear
11:15 PM 35.6 °F 29.2 °F 28.4 °F 75% 29.98 in 10.0 mi WSW 8.1 mph - N/A   Clear
11:35 PM 35.6 °F 32.8 °F 26.6 °F 70% 29.99 in 10.0 mi West 3.5 mph - N/A   Clear
11:55 PM 35.6 °F - 26.6 °F 70% 29.99 in 10.0 mi Calm Calm - N/A   Clear